P 76-5

Satellite information

Favourite Embed

Satellite Type and Status

PAYLOADIN ORBIT

Key statistics

Satellite P 76-5 at a glance.

Uptime

18058

Days in orbit

Revolutions

≈ 13.7

Per day

Orbit

SSO

Sun Synchronous Orbit

Inclination

99.9

Latest

Satellite identification and parameters

Extended collection of information and parameters for P 76-5.

Object identification

Identified? True

Debris? False

Object name: P 76-5

International designator: 1976-047A

Object number (NORAD): 8860

Object ID (CCSDS): 8860

Country: UNITED STATES OF AMERICA (US)

Current information (Y/N): Y

RCS size: LARGE

Orbital parameters

Period: 105.245 minutes

Inclination: 99.9242 deg

SMA: 7384.055 km

Apoapsis: 1036.331 km

Periapsis: 975.508 km

RAAN: 145.0036 deg

Eccentricy: 0.00411851

Argument of periapsis: 223.1337 deg

Mean anomaly: 147.4453 deg

Mean motion: 13.68234076 rev/day

Mean motion (dot): 0.00000126 rev/day2

B* drag term: 0.00020176062 1/REarth

Two-line elements (TLE)

Creation date: Oct. 30, 2025, 3:32 a.m.

Reference frame: TEME

Reference center: EARTH

Epoch: Oct. 29, 2025, 8:25 p.m. UTC

TLE line 0: 0 P 76-5

TLE line 1: 1 08860U 76047A 25302.85083455 .00000126 00000-0 20176-3 0 9994

TLE line 2: 2 08860 99.9242 145.0036 0041185 223.1337 147.4453 13.68234076464897

Live tracking on map

Real-time ground track for satellite P 76-5.

In-orbit conjunctions

A list of the most updated potential collisions computed for object P 76-5.

Target Orbit TCA Probability of collision Miss distance Type
FENGYUN 1C DEB SSO 2025-10-20 11:12:56 0.000280987 101.0 (m) DEBRIS
COSMOS 1375 DEB LEO 2025-09-14 03:17:18 0.0001832475 539.0 (m) DEBRIS
COSMOS 2251 DEB LEO 2024-09-25 07:58:18 0.0002056211 933.0 (m) DEBRIS

Associated space launch

Experimental military satellite

P 76-5 was lifted into orbit during the mission ‘Scout B-1 | Wideband’, on board a Scout B-1 space rocket.

The launch took place on May 22, 1976, 7:42 a.m. from Space Launch Complex 5.

For more information about the launch, click the button.

Launch to space Scout B-1 | Wideband
Scout B-1 | Wideband

Agency: N/A

Status: Launch Successful

Launch date: May 22, 1976, 7:42 a.m. UTC

Rocket: Scout B-1

Launch pad: Space Launch Complex 5

Location: Vandenberg SFB, CA, USA

...

Latest news about this satellite

There are no fresh news available about this satellite. Check back as we update our databases every day.


Newsletter sign-up

Weekly statistics, charts and insights to help you stay on top of the space industry.